Regional Weather Roundup
Issued by NWS Sterling, VA

Home | Current Version | Previous Version | Text Only | Print | Product List | Glossary On
Versions: 1 2 3 4 5 6 7 8 9 10 11 12 13 14 15 16 17 18 19 20 21 22 23 24 25 26 27
000
ASUS41 KLWX 230711
RWRLWX

REGIONAL WEATHER ROUNDUP
NATIONAL WEATHER SERVICE BALTIMORE MD/WASHINGTON DC
300 AM EDT TUE MAY 23 2017

Note: "FAIR" indicates few or no clouds below 12,000 feet
with no significant weather and/or obstructions to visibility.
 TC=TEMPERATURE CELSIUS

 * =Non NWS site. Station does not report precipitation (e.g. rain,
    snow, etc.), thunder, or fog.

DCZ001-MDZ009-015-VAZ040>042-051-053>054-230800-
WASHINGTON METRO

CITY           SKY/WX    TMP DP  RH WIND       PRES   REMARKS
WASHINGTON NAT MOCLDY    64  62  93 NW7       29.95S
DULLES         MOCLDY    58  50  75 NW5       29.96S
ANDREWS AFB    CLOUDY    61  61 100 N7        29.93F
FT BELVOIR     CLOUDY    61  58  91 NW5       29.94F
QUANTICO       CLOUDY    64  55  72 N9        29.95F
COLLEGE PARK*  CLOUDY    61  61  98 NW3       29.94F
LEESBURG*      CLOUDY    61  52  72 N5        29.97S
MANASSAS*        N/A     60  53  77 N8        29.96F
GAITHERSBURG*  CLOUDY    55  54  96 CALM      29.96F FOG

$$

MDZ006>007-011-014-230800-
BALTIMORE METRO

CITY           SKY/WX    TMP DP  RH WIND       PRES   REMARKS
BWI AIRPORT    FOG       59  59 100 NW5       29.94S VSB 1/4
MD SCIENCE CTR   N/A     63  62  97 MISG      29.94F
MARTIN STATE   FOG       61  61 100 CALM      29.95S VSB 1/2
ANNAPOLIS      CLOUDY    63  63 100 NW3       29.92F FOG
FORT MEADE*    CLOUDY    59  57  94 CALM      29.96F VSB 1/2

$$

MDZ012-015-019>023-230800-
MARYLAND EASTERN SHORE

CITY           SKY/WX    TMP DP  RH WIND       PRES   REMARKS
OCEAN CITY     CLOUDY    64  63  96 N12       29.92S FOG
SALISBURY      CLOUDY    64  64 100 NW9       29.92S
BAY BRIDGE AP* FOG       61  61 100 CALM      29.93F VSB 1/4
EASTON*        FOG       61  60  94 CALM      29.95F VSB 1/2

$$

MDZ017>025-230800-
SOUTHERN MARYLAND

CITY           SKY/WX    TMP DP  RH WIND       PRES   REMARKS
PATUXENT RIVER CLOUDY    64  64 100 N8        29.92F
ST INIGOES     CLOUDY    64  63  96 CALM      29.92S FOG
LEONARDTOWN*   CLOUDY    61  61 100 CALM      29.94F

$$

MDZ003>005-230800-
NORTH CENTRAL MARYLAND

CITY           SKY/WX    TMP DP  RH WIND       PRES   REMARKS
FREDERICK*     FOG       54  54 100 CALM      29.99S VSB 3/4
HAGERSTOWN APT MOCLDY    57  49  74 CALM      29.97F
WESTMINSTER*   FOG       59  59 100 CALM      29.96F VSB 1/4

$$

MDZ501>502-230800-
WESTERN MARYLAND

CITY           SKY/WX    TMP DP  RH WIND       PRES   REMARKS
OAKLAND*         N/A     48  43  81 N3        30.02F
CUMBERLAND*    PTCLDY    52  48  87 CALM      30.03F

$$

VAZ025>031-230800-
SHENANDOAH VALLEY

CITY           SKY/WX    TMP DP  RH WIND       PRES   REMARKS
WINCHESTER*    CLOUDY    50  48  93 CALM      29.98S
FRONT ROYAL*   CLOUDY    52  52 100 CALM      29.97S
LURAY*         CLOUDY    54  52  94 CALM      29.98S
NEW MARKET*    CLOUDY    52  50  94 CALM      29.98S
STAUNTON*      PTCLDY    56  51  82 CALM      29.99F
WAYNESBORO*    CLOUDY    56  54  95 CALM      29.98F

$$

WVZ021-048>050-054>055-230800-
EASTERN WEST VIRGINIA PANHANDLE

CITY           SKY/WX    TMP DP  RH WIND       PRES   REMARKS
MARTINSBURG    CLOUDY    52  48  86 CALM      29.97F
PETERSBURG*    MOCLDY    51  50  96 CALM      30.01F

$$

VAZ036>039-050-230800-
CENTRAL FOOTHILLS

CITY           SKY/WX    TMP DP  RH WIND       PRES   REMARKS
CHARLOTTESVILL CLOUDY    65  60  84 E6        29.95S
CULPEPER*      CLOUDY    62  56  82 CALM      29.97S
ORANGE*        CLOUDY    63  54  72 NE5       29.95F
GORDONSVILLE*  CLOUDY    63  59  87 CALM      29.95S
WARRENTON*     CLOUDY    61  54  76 CALM      29.96S

$$

VAZ055>057-230800-
NORTH AND CENTRAL PIEDMONT

CITY           SKY/WX    TMP DP  RH WIND       PRES   REMARKS
FREDERICKSBRG* CLOUDY    64  62  90 NW7       29.94S
STAFFORD*      MOCLDY    62  57  84 N8        29.99S

$$

NCZ024-NYZ072-PAZ021-071-VAZ022-071-230800-
OTHER REGIONAL OBSERVATIONS

CITY           SKY/WX    TMP DP  RH WIND       PRES   REMARKS
NEW YORK CITY  CLOUDY    59  57  93 VRB5      29.96F
PHILADELPHIA   CLOUDY    62  59  90 N6        29.93F
PITTSBURGH     MOCLDY    49  48  97 CALM      29.99F
ROANOKE        CLOUDY    59  56  89 W3        29.97F
RICHMOND       CLOUDY    65  65 100 NE3       29.93S FOG
RALEIGH        CLOUDY    68  67  96 CALM      29.91F

$$

ANZ530>537-230800-
MARINE OBSERVATIONS

STATION/POSITION TIME  TEMP    WIND        PRES
                       AIR SEA DIR/SP/G
                 (UTC) (F)     (DEG/KT/KT) (MB)
THOMAS PT LIGHT  0700   63 65  360/  6/  7   N/A
BALT KEY BRIDGE  0648          350/  4/  5 1013.7F
COVE POINT       0648           30/  7/ 10 1013.9F
LEWISETTA        0642      69  340/  2/  3 1013.3F
SOLOMONS ISLAND  0642      67  360/  3/  4   N/A
PINEY POINT      0642           90/  3/  4   N/A

$$





USA.gov is the U.S. government's official web portal to all federal, state and local government web resources and services.